| time (UTC) | temp F | wind direction | speed knots | gust knots | rain 1hr in | rain 24hr in | rain mn in | humidity % | barometer mb |
| 20260506050807 | 47 | 105 | 0.0 | 0.0 | 0.00 | 0.00 | 0.00 | 92 | 1014.2 |
| 20260506050308 | 47 | 105 | 0.0 | 0.0 | 0.00 | 0.00 | 0.00 | 92 | 1014.1 |
| 20260506044807 | 47 | 105 | 0.0 | 0.0 | 0.00 | 0.00 | 0.00 | 92 | 1014.1 |
| 20260506043307 | 47 | 105 | 0.0 | 0.0 | 0.00 | 0.00 | 0.00 | 92 | 1014.2 |
| 20260506042307 | 47 | 105 | 0.0 | 0.9 | 0.00 | 0.00 | 0.00 | 93 | 1014.3 |
| 20260506041807 | 47 | 105 | 0.0 | 0.9 | 0.00 | 0.00 | 0.00 | 93 | 1014.2 |
| 20260506041308 | 47 | 105 | 0.0 | 0.9 | 0.00 | 0.00 | 0.00 | 93 | 1014.2 |
| 20260506040807 | 47 | 99 | 0.0 | 0.0 | 0.00 | 0.00 | 0.00 | 93 | 1014.3 |
| 20260506040307 | 47 | 99 | 0.0 | 0.0 | 0.00 | 0.00 | 0.00 | 93 | 1014.3 |
| 20260506035309 | 47 | 99 | 0.0 | 0.0 | 0.00 | 0.00 | 0.00 | 93 | 1014.5 |
| 20260506034807 | 47 | 99 | 0.0 | 0.0 | 0.00 | 0.00 | 0.00 | 93 | 1014.5 |
| 20260506033309 | 47 | 99 | 0.0 | 0.9 | 0.00 | 0.00 | 0.00 | 92 | 1014.5 |
| 20260506032808 | 47 | 104 | 0.0 | 0.9 | 0.00 | 0.00 | 0.00 | 92 | 1014.6 |
| 20260506032309 | 47 | 292 | 0.0 | 0.0 | 0.00 | 0.00 | 0.00 | 92 | 1014.6 |
| 20260506031309 | 47 | 292 | 0.0 | 0.0 | 0.00 | 0.00 | 0.00 | 92 | 1014.6 |
| 20260506030808 | 47 | 292 | 0.0 | 0.0 | 0.00 | 0.00 | 0.00 | 92 | 1014.6 |
| 20260506030310 | 47 | 292 | 0.0 | 0.0 | 0.00 | 0.00 | 0.00 | 92 | 1014.6 |
| 20260506025813 | 47 | 292 | 0.0 | 0.0 | 0.00 | 0.00 | 0.00 | 92 | 1014.6 |
| 20260506025332 | 48 | 292 | 0.0 | 0.0 | 0.00 | 0.00 | 0.00 | 92 | 1014.6 |
| 20260506023808 | 48 | 292 | 0.0 | 0.0 | 0.00 | 0.00 | 0.00 | 92 | 1014.6 |
| 20260506023309 | 47 | 292 | 0.0 | 0.0 | 0.00 | 0.00 | 0.00 | 92 | 1014.7 |
| 20260506022809 | 48 | 292 | 0.0 | 0.0 | 0.00 | 0.00 | 0.00 | 91 | 1014.7 |
| 20260506022308 | 48 | 292 | 0.0 | 0.0 | 0.00 | 0.00 | 0.00 | 91 | 1014.7 |
| 20260506021810 | 48 | 292 | 0.0 | 0.0 | 0.00 | 0.00 | 0.00 | 91 | 1014.7 |
| 20260506021308 | 48 | 292 | 0.0 | 0.0 | 0.00 | 0.00 | 0.00 | 91 | 1014.7 |
| 20260506020810 | 48 | 292 | 0.0 | 0.0 | 0.00 | 0.00 | 0.00 | 91 | 1014.7 |
| 20260506015809 | 48 | 292 | 0.0 | 0.0 | 0.00 | 0.00 | 0.00 | 91 | 1014.7 |
| 20260506015309 | 48 | 292 | 0.0 | 0.0 | 0.00 | 0.00 | 0.00 | 91 | 1014.7 |
| 20260506013309 | 48 | 292 | 0.0 | 0.0 | 0.00 | 0.00 | 0.00 | 91 | 1014.8 |
| 20260506012809 | 48 | 294 | 0.0 | 0.0 | 0.00 | 0.00 | 0.00 | 91 | 1014.9 |
| 20260506012309 | 48 | 294 | 0.0 | 0.0 | 0.00 | 0.00 | 0.00 | 91 | 1014.9 |
| 20260506011809 | 48 | 294 | 0.0 | 0.0 | 0.00 | 0.00 | 0.00 | 91 | 1015.0 |
| 20260506011310 | 48 | 294 | 0.0 | 0.0 | 0.00 | 0.00 | 0.00 | 91 | 1015.0 |
| 20260506010809 | 48 | 294 | 0.0 | 0.9 | 0.00 | 0.00 | 0.00 | 91 | 1015.0 |
| 20260506010310 | 48 | 276 | 0.0 | 0.9 | 0.00 | 0.00 | 0.00 | 90 | 1015.1 |
| 20260506005809 | 49 | 275 | 0.0 | 0.9 | 0.00 | 0.00 | 0.00 | 90 | 1015.1 |
| 20260506005309 | 49 | 275 | 0.0 | 0.9 | 0.00 | 0.00 | 0.00 | 90 | 1015.0 |
| 20260506004810 | 49 | 275 | 0.0 | 0.9 | 0.00 | 0.00 | 0.00 | 90 | 1015.0 |
| 20260506004311 | 49 | 275 | 0.0 | 0.0 | 0.00 | 0.00 | 0.00 | 90 | 1015.0 |
| 20260506003815 | 49 | 275 | 0.0 | 0.0 | 0.00 | 0.00 | 0.00 | 90 | 1015.1 |
| 20260506003311 | 49 | 275 | 0.0 | 0.9 | 0.00 | 0.00 | 0.00 | 90 | 1015.1 |
| 20260506002809 | 49 | 273 | 0.0 | 0.9 | 0.00 | 0.00 | 0.00 | 90 | 1015.1 |
| 20260506002311 | 49 | 267 | 0.0 | 0.9 | 0.00 | 0.00 | 0.00 | 90 | 1015.1 |
| 20260506001809 | 49 | 263 | 0.0 | 0.9 | 0.00 | 0.00 | 0.00 | 90 | 1015.1 |
| 20260506001310 | 49 | 266 | 0.0 | 0.9 | 0.00 | 0.00 | 0.00 | 89 | 1015.1 |
| 20260506000809 | 49 | 266 | 0.0 | 0.9 | 0.00 | 0.00 | 0.00 | 89 | 1015.1 |
| 20260506000311 | 49 | 266 | 0.0 | 0.9 | 0.00 | 0.00 | 0.00 | 89 | 1015.2 |
| 20260505235309 | 49 | 275 | 0.0 | 0.9 | 0.00 | 0.00 | 0.00 | 88 | 1015.1 |
| 20260505234809 | 49 | 267 | 0.0 | 0.9 | 0.00 | 0.00 | 0.00 | 88 | 1015.1 |
| 20260505233810 | 49 | 224 | 0.0 | 0.0 | 0.00 | 0.00 | 0.00 | 87 | 1015.2 |
| 20260505232811 | 49 | 224 | 0.0 | 0.0 | 0.00 | 0.00 | 0.00 | 87 | 1015.3 |
| 20260505231311 | 50 | 224 | 0.0 | 0.0 | 0.00 | 0.00 | 0.00 | 87 | 1015.3 |
| 20260505230827 | 50 | 224 | 0.0 | 0.0 | 0.00 | 0.00 | 0.00 | 87 | 1015.3 |
| 20260505230310 | 50 | 224 | 0.0 | 0.0 | 0.00 | 0.00 | 0.00 | 87 | 1015.5 |
| 20260505225311 | 50 | 224 | 0.0 | 0.0 | 0.00 | 0.00 | 0.00 | 87 | 1015.5 |
| 20260505224810 | 50 | 224 | 0.0 | 0.0 | 0.00 | 0.00 | 0.00 | 86 | 1015.5 |
| 20260505223812 | 50 | 224 | 0.0 | 0.0 | 0.00 | 0.00 | 0.00 | 87 | 1015.6 |
| 20260505223311 | 50 | 224 | 0.0 | 0.9 | 0.00 | 0.00 | 0.00 | 87 | 1015.6 |
| 20260505222810 | 50 | 224 | 0.0 | 0.9 | 0.00 | 0.00 | 0.00 | 87 | 1015.7 |
| 20260505222310 | 50 | 140 | 0.0 | 0.0 | 0.00 | 0.00 | 0.00 | 86 | 1015.7 |
| 20260505221810 | 50 | 140 | 0.0 | 0.0 | 0.00 | 0.00 | 0.00 | 86 | 1015.7 |
| 20260505221311 | 50 | 140 | 0.0 | 0.0 | 0.00 | 0.00 | 0.00 | 86 | 1015.8 |
| 20260505220810 | 50 | 140 | 0.0 | 0.0 | 0.00 | 0.00 | 0.00 | 86 | 1015.7 |
| 20260505220312 | 50 | 140 | 0.0 | 0.0 | 0.00 | 0.00 | 0.00 | 87 | 1015.7 |
| 20260505215811 | 50 | 140 | 0.0 | 0.0 | 0.00 | 0.00 | 0.00 | 87 | 1015.7 |
| 20260505214310 | 50 | 127 | 0.0 | 0.9 | 0.00 | 0.00 | 0.00 | 87 | 1015.7 |
| 20260505213812 | 50 | 124 | 0.0 | 0.9 | 0.00 | 0.00 | 0.00 | 87 | 1015.7 |
| 20260505213313 | 50 | 118 | 0.0 | 0.9 | 0.00 | 0.00 | 0.00 | 88 | 1015.7 |
| 20260505212810 | 50 | 118 | 0.0 | 0.9 | 0.00 | 0.00 | 0.00 | 88 | 1015.7 |
| 20260505212311 | 50 | 120 | 0.0 | 0.9 | 0.00 | 0.00 | 0.00 | 87 | 1015.7 |
| 20260505211311 | 50 | 140 | 0.0 | 0.9 | 0.00 | 0.00 | 0.00 | 87 | 1015.7 |
| 20260505210311 | 50 | 137 | 0.0 | 0.9 | 0.00 | 0.00 | 0.00 | 87 | 1015.7 |
| 20260505205311 | 51 | 149 | 0.0 | 0.0 | 0.00 | 0.00 | 0.00 | 87 | 1015.7 |
| 20260505204811 | 51 | 163 | 0.0 | 0.9 | 0.00 | 0.00 | 0.00 | 86 | 1015.8 |
| 20260505203313 | 51 | 142 | 0.0 | 0.0 | 0.00 | 0.00 | 0.00 | 86 | 1015.7 |
| 20260505202812 | 51 | 145 | 0.0 | 0.9 | 0.00 | 0.00 | 0.00 | 86 | 1015.7 |
| 20260505202316 | 51 | 144 | 0.0 | 0.9 | 0.00 | 0.00 | 0.00 | 86 | 1015.7 |
| 20260505201811 | 51 | 143 | 0.0 | 0.0 | 0.00 | 0.00 | 0.00 | 86 | 1015.8 |
| 20260505201311 | 51 | 144 | 0.0 | 0.9 | 0.00 | 0.00 | 0.00 | 86 | 1015.8 |
| 20260505200811 | 51 | 126 | 0.0 | 0.9 | 0.00 | 0.00 | 0.00 | 86 | 1015.8 |
| 20260505200311 | 51 | 129 | 0.0 | 1.7 | 0.00 | 0.00 | 0.00 | 86 | 1015.8 |
| 20260505195811 | 51 | 149 | 0.0 | 1.7 | 0.00 | 0.00 | 0.00 | 86 | 1015.7 |
| 20260505195312 | 51 | 124 | 0.9 | 1.7 | 0.00 | 0.00 | 0.00 | 85 | 1015.7 |
| 20260505194811 | 51 | 144 | 0.0 | 0.9 | 0.00 | 0.00 | 0.00 | 85 | 1015.6 |
| 20260505194312 | 51 | 201 | 0.0 | 1.7 | 0.00 | 0.00 | 0.00 | 85 | 1015.6 |
| 20260505193813 | 51 | 161 | 0.0 | 1.7 | 0.00 | 0.00 | 0.00 | 85 | 1015.5 |
| 20260505193311 | 51 | 150 | 0.0 | 1.7 | 0.00 | 0.00 | 0.00 | 85 | 1015.5 |
| 20260505192812 | 51 | 129 | 0.0 | 0.9 | 0.00 | 0.00 | 0.00 | 85 | 1015.5 |
| 20260505192311 | 52 | 174 | 0.0 | 0.9 | 0.00 | 0.00 | 0.00 | 85 | 1015.6 |
| 20260505191812 | 52 | 150 | 0.0 | 0.9 | 0.00 | 0.00 | 0.00 | 85 | 1015.6 |
| 20260505191312 | 51 | 165 | 0.0 | 0.9 | 0.00 | 0.00 | 0.00 | 84 | 1015.6 |
| 20260505190312 | 52 | 132 | 0.0 | 0.9 | 0.00 | 0.00 | 0.00 | 84 | 1015.5 |
| 20260505185812 | 52 | 129 | 0.0 | 0.9 | 0.00 | 0.00 | 0.00 | 85 | 1015.5 |
| 20260505185312 | 52 | 132 | 0.0 | 0.9 | 0.00 | 0.00 | 0.00 | 84 | 1015.4 |
| 20260505184812 | 52 | 156 | 0.0 | 0.9 | 0.00 | 0.00 | 0.00 | 85 | 1015.5 |
| 20260505184312 | 52 | 145 | 0.0 | 0.9 | 0.00 | 0.00 | 0.00 | 84 | 1015.5 |
| 20260505183814 | 52 | 143 | 0.9 | 2.6 | 0.00 | 0.00 | 0.00 | 84 | 1015.4 |
| 20260505183313 | 52 | 160 | 0.0 | 1.7 | 0.00 | 0.00 | 0.00 | 84 | 1015.4 |
| 20260505182813 | 52 | 6 | 0.0 | 0.0 | 0.00 | 0.00 | 0.00 | 84 | 1015.4 |
| 20260505182312 | 52 | 131 | 0.0 | 0.9 | 0.00 | 0.00 | 0.00 | 84 | 1015.4 |
| 20260505181312 | 52 | 200 | 0.9 | 2.6 | 0.00 | 0.00 | 0.00 | 84 | 1015.3 |
| 20260505180813 | 52 | 156 | 1.7 | 5.2 | 0.00 | 0.00 | 0.00 | 84 | 1015.3 |
| 20260505180312 | 52 | 165 | 2.6 | 5.2 | 0.00 | 0.00 | 0.00 | 84 | 1015.4 |
| 20260505175812 | 52 | 143 | 0.9 | 4.3 | 0.00 | 0.00 | 0.00 | 84 | 1015.4 |
| 20260505175312 | 52 | 153 | 1.7 | 4.3 | 0.00 | 0.00 | 0.00 | 84 | 1015.5 |
| 20260505174812 | 52 | 143 | 1.7 | 5.2 | 0.00 | 0.00 | 0.00 | 83 | 1015.5 |
| 20260505174313 | 53 | 141 | 0.9 | 2.6 | 0.00 | 0.00 | 0.00 | 82 | 1015.5 |
| 20260505173814 | 53 | 110 | 1.7 | 4.3 | 0.00 | 0.00 | 0.00 | 80 | 1015.5 |
| 20260505172813 | 54 | 99 | 0.9 | 4.3 | 0.00 | 0.01 | 0.00 | 76 | 1015.6 |
| 20260505172313 | 54 | 114 | 0.0 | 0.9 | 0.00 | 0.01 | 0.00 | 76 | 1015.6 |
| 20260505171814 | 54 | 110 | 0.0 | 1.7 | 0.00 | 0.01 | 0.00 | 76 | 1015.5 |
| 20260505171313 | 54 | 126 | 0.0 | 0.9 | 0.00 | 0.01 | 0.00 | 77 | 1015.5 |
| 20260505170813 | 54 | 107 | 0.0 | 0.9 | 0.00 | 0.01 | 0.00 | 77 | 1015.5 |
| 20260505170312 | 54 | 128 | 0.0 | 0.9 | 0.00 | 0.01 | 0.00 | 77 | 1015.6 |
| 20260505165812 | 54 | 238 | 0.0 | 0.9 | 0.00 | 0.01 | 0.00 | 78 | 1015.6 |
| 20260505165314 | 54 | 282 | 0.9 | 2.6 | 0.00 | 0.01 | 0.00 | 77 | 1015.7 |
| 20260505164812 | 55 | 293 | 0.0 | 5.2 | 0.00 | 0.01 | 0.00 | 77 | 1015.7 |
| 20260505164313 | 55 | 310 | 2.6 | 4.3 | 0.00 | 0.01 | 0.00 | 76 | 1015.7 |
| 20260505163813 | 55 | 312 | 2.6 | 5.2 | 0.00 | 0.01 | 0.00 | 75 | 1015.8 |
| 20260505163315 | 55 | 319 | 1.7 | 5.2 | 0.00 | 0.01 | 0.00 | 76 | 1015.7 |
| 20260505162813 | 55 | 312 | 3.5 | 5.2 | 0.00 | 0.01 | 0.00 | 76 | 1015.7 |
| 20260505162312 | 55 | 314 | 1.7 | 5.2 | 0.00 | 0.01 | 0.00 | 76 | 1015.7 |
| 20260505161815 | 55 | 310 | 3.5 | 5.2 | 0.00 | 0.01 | 0.00 | 76 | 1015.7 |
| 20260505161314 | 55 | 313 | 3.5 | 5.2 | 0.00 | 0.01 | 0.00 | 75 | 1015.6 |
| 20260505160813 | 55 | 313 | 4.3 | 7.0 | 0.00 | 0.01 | 0.00 | 75 | 1015.6 |
| 20260505160314 | 56 | 313 | 4.3 | 6.1 | 0.00 | 0.01 | 0.00 | 75 | 1015.7 |
| 20260505153315 | 57 | 281 | 0.9 | 4.3 | 0.00 | 0.01 | 0.00 | 72 | 1015.8 |
| 20260505152815 | 57 | 308 | 2.6 | 6.1 | 0.00 | 0.01 | 0.00 | 72 | 1015.8 |
| 20260505152313 | 57 | 299 | 1.7 | 4.3 | 0.00 | 0.01 | 0.00 | 72 | 1015.8 |
| 20260505151814 | 57 | 279 | 0.9 | 5.2 | 0.00 | 0.01 | 0.00 | 73 | 1015.8 |
| 20260505150815 | 56 | 293 | 1.7 | 4.3 | 0.00 | 0.01 | 0.00 | 72 | 1015.8 |
| 20260505150315 | 56 | 306 | 2.6 | 5.2 | 0.00 | 0.01 | 0.00 | 72 | 1015.8 |
| 20260505140315 | 56 | 302 | 2.6 | 5.2 | 0.00 | 0.01 | 0.00 | 72 | 1016.2 |
| 20260505124315 | 56 | 296 | 1.7 | 5.2 | 0.00 | 0.01 | 0.00 | 65 | 1016.2 |
| 20260505123816 | 56 | 300 | 3.5 | 6.1 | 0.00 | 0.01 | 0.00 | 65 | 1016.2 |
| 20260505123317 | 56 | 298 | 2.6 | 5.2 | 0.00 | 0.01 | 0.00 | 66 | 1016.2 |
| 20260505122815 | 56 | 304 | 0.9 | 2.6 | 0.00 | 0.01 | 0.00 | 67 | 1016.3 |
| 20260505122315 | 56 | 307 | 2.6 | 6.1 | 0.00 | 0.01 | 0.00 | 66 | 1016.3 |
| 20260505121817 | 56 | 298 | 1.7 | 6.1 | 0.00 | 0.01 | 0.00 | 67 | 1016.3 |
| 20260505121314 | 56 | 312 | 2.6 | 6.1 | 0.00 | 0.01 | 0.00 | 66 | 1016.2 |
| 20260505120817 | 56 | 309 | 0.9 | 2.6 | 0.00 | 0.01 | 0.00 | 67 | 1016.2 |
| 20260505120315 | 56 | 259 | 0.9 | 4.3 | 0.00 | 0.01 | 0.00 | 67 | 1016.2 |
| 20260505115815 | 56 | 154 | 0.9 | 6.1 | 0.00 | 0.01 | 0.00 | 67 | 1016.2 |
| 20260505115316 | 56 | 129 | 0.9 | 5.2 | 0.00 | 0.01 | 0.00 | 68 | 1016.3 |
| 20260505114817 | 56 | 268 | 0.0 | 4.3 | 0.00 | 0.01 | 0.00 | 67 | 1016.3 |
| 20260505114315 | 56 | 242 | 0.9 | 5.2 | 0.00 | 0.01 | 0.00 | 67 | 1016.3 |
| 20260505113815 | 55 | 140 | 0.9 | 5.2 | 0.00 | 0.01 | 0.00 | 67 | 1016.3 |
| 20260505113316 | 55 | 118 | 0.0 | 5.2 | 0.00 | 0.01 | 0.00 | 67 | 1016.2 |
| 20260505112817 | 55 | 193 | 0.9 | 2.6 | 0.00 | 0.01 | 0.00 | 66 | 1016.3 |
| 20260505112315 | 55 | 105 | 1.7 | 4.3 | 0.00 | 0.01 | 0.00 | 66 | 1016.4 |
| 20260505111816 | 55 | 278 | 0.9 | 5.2 | 0.00 | 0.01 | 0.00 | 66 | 1016.4 |
| 20260505111316 | 55 | 239 | 1.7 | 4.3 | 0.00 | 0.01 | 0.00 | 66 | 1016.3 |
| 20260505110815 | 55 | 268 | 0.9 | 5.2 | 0.00 | 0.01 | 0.00 | 66 | 1016.4 |
| 20260505110316 | 55 | 308 | 3.5 | 7.0 | 0.00 | 0.01 | 0.00 | 65 | 1016.4 |
| 20260505101816 | 54 | 296 | 2.6 | 10.4 | 0.00 | 0.01 | 0.00 | 69 | 1016.5 |
| 20260505101316 | 54 | 302 | 2.6 | 6.1 | 0.00 | 0.01 | 0.00 | 69 | 1016.5 |
| 20260505100817 | 54 | 307 | 5.2 | 7.8 | 0.00 | 0.01 | 0.00 | 68 | 1016.5 |
| 20260505100316 | 54 | 288 | 1.7 | 6.1 | 0.00 | 0.01 | 0.00 | 70 | 1016.5 |
| 20260505095816 | 55 | 308 | 2.6 | 7.8 | 0.00 | 0.01 | 0.00 | 71 | 1016.4 |
| 20260505095316 | 54 | 301 | 4.3 | 7.0 | 0.00 | 0.01 | 0.00 | 73 | 1016.5 |
| 20260505094817 | 54 | 276 | 0.9 | 4.3 | 0.00 | 0.01 | 0.00 | 75 | 1016.5 |
| 20260505094317 | 53 | 324 | 1.7 | 5.2 | 0.00 | 0.01 | 0.00 | 73 | 1016.5 |
| 20260505093816 | 53 | 309 | 4.3 | 8.7 | 0.00 | 0.01 | 0.00 | 74 | 1016.5 |
| 20260505093317 | 53 | 316 | 4.3 | 7.0 | 0.00 | 0.01 | 0.00 | 74 | 1016.5 |
| 20260505092816 | 53 | 302 | 3.5 | 6.1 | 0.00 | 0.01 | 0.00 | 74 | 1016.6 |
| 20260505091817 | 52 | 304 | 3.5 | 5.2 | 0.00 | 0.01 | 0.00 | 77 | 1016.5 |
| 20260505091318 | 52 | 302 | 2.6 | 7.8 | 0.00 | 0.01 | 0.00 | 78 | 1016.5 |
| 20260505090817 | 52 | 318 | 2.6 | 6.1 | 0.00 | 0.01 | 0.00 | 78 | 1016.5 |
| 20260505090318 | 52 | 320 | 1.7 | 5.2 | 0.00 | 0.01 | 0.00 | 79 | 1016.4 |
| 20260505085817 | 52 | 311 | 2.6 | 6.1 | 0.00 | 0.01 | 0.00 | 80 | 1016.5 |
| 20260505085317 | 51 | 306 | 3.5 | 5.2 | 0.00 | 0.01 | 0.00 | 79 | 1016.5 |
| 20260505084818 | 51 | 314 | 1.7 | 7.0 | 0.00 | 0.01 | 0.00 | 80 | 1016.5 |
| 20260505084316 | 51 | 310 | 2.6 | 6.1 | 0.00 | 0.01 | 0.00 | 79 | 1016.5 |
| 20260505083818 | 51 | 306 | 2.6 | 5.2 | 0.00 | 0.01 | 0.00 | 79 | 1016.5 |
| 20260505083317 | 51 | 313 | 3.5 | 6.1 | 0.00 | 0.01 | 0.00 | 79 | 1016.5 |
| 20260505082817 | 51 | 314 | 5.2 | 7.8 | 0.00 | 0.01 | 0.00 | 79 | 1016.5 |
| 20260505082317 | 51 | 303 | 0.9 | 5.2 | 0.00 | 0.01 | 0.00 | 80 | 1016.5 |
| 20260505081817 | 51 | 304 | 1.7 | 6.1 | 0.00 | 0.01 | 0.00 | 80 | 1016.6 |
| 20260505081318 | 51 | 310 | 1.7 | 5.2 | 0.00 | 0.01 | 0.00 | 80 | 1016.5 |
| 20260505080317 | 50 | 298 | 1.7 | 5.2 | 0.00 | 0.01 | 0.00 | 82 | 1016.5 |
| 20260505075817 | 50 | 310 | 1.7 | 5.2 | 0.00 | 0.01 | 0.00 | 82 | 1016.5 |
| 20260505075317 | 50 | 311 | 2.6 | 6.1 | 0.00 | 0.01 | 0.00 | 82 | 1016.5 |
| 20260505074317 | 50 | 297 | 0.9 | 4.3 | 0.00 | 0.01 | 0.00 | 83 | 1016.5 |
| 20260505072817 | 49 | 308 | 1.7 | 5.2 | 0.00 | 0.01 | 0.00 | 84 | 1016.4 |
| 20260505072317 | 49 | 311 | 2.6 | 5.2 | 0.00 | 0.01 | 0.00 | 84 | 1016.4 |
| 20260505071318 | 49 | 312 | 2.6 | 5.2 | 0.00 | 0.01 | 0.00 | 85 | 1016.5 |
| 20260505070319 | 48 | 311 | 1.7 | 5.2 | 0.00 | 0.01 | 0.00 | 85 | 1016.5 |
| 20260505065818 | 48 | 308 | 2.6 | 5.2 | 0.00 | 0.01 | 0.00 | 85 | 1016.5 |
| 20260505065318 | 48 | 308 | 2.6 | 5.2 | 0.00 | 0.01 | 0.00 | 85 | 1016.6 |
| 20260505064318 | 48 | 307 | 2.6 | 5.2 | 0.00 | 0.01 | 0.00 | 86 | 1016.6 |
| 20260505063818 | 48 | 311 | 0.9 | 5.2 | 0.00 | 0.01 | 0.00 | 86 | 1016.6 |
| 20260505063317 | 48 | 311 | 2.6 | 5.2 | 0.00 | 0.01 | 0.00 | 86 | 1016.6 |
| 20260505062819 | 48 | 312 | 2.6 | 5.2 | 0.00 | 0.01 | 0.00 | 86 | 1016.6 |
| 20260505062319 | 48 | 312 | 2.6 | 5.2 | 0.00 | 0.01 | 0.00 | 86 | 1016.6 |
| 20260505061819 | 47 | 307 | 1.7 | 5.2 | 0.00 | 0.01 | 0.00 | 86 | 1016.6 |
| 20260505061318 | 47 | 312 | 2.6 | 5.2 | 0.00 | 0.01 | 0.00 | 86 | 1016.6 |
| 20260505060818 | 47 | 314 | 2.6 | 5.2 | 0.00 | 0.01 | 0.00 | 85 | 1016.5 |
| 20260505060318 | 47 | 314 | 1.7 | 5.2 | 0.00 | 0.01 | 0.00 | 85 | 1016.5 |
| 20260505055818 | 47 | 309 | 2.6 | 5.2 | 0.00 | 0.01 | 0.00 | 85 | 1016.6 |
| 20260505055318 | 47 | 311 | 2.6 | 5.2 | 0.00 | 0.01 | 0.00 | 85 | 1016.5 |
| 20260505054818 | 47 | 305 | 1.7 | 5.2 | 0.00 | 0.01 | 0.00 | 85 | 1016.6 |
| 20260505053827 | 47 | 311 | 2.6 | 5.2 | 0.00 | 0.01 | 0.00 | 85 | 1016.6 |
| 20260505053327 | 47 | 305 | 2.6 | 5.2 | 0.00 | 0.01 | 0.00 | 85 | 1016.6 |
| 20260505051830 | 47 | 312 | 0.9 | 5.2 | 0.00 | 0.01 | 0.00 | 84 | 1016.5 |